Starlink 31226

operational
NORAD ID: 58858 Int'l Des: 2024-019 Owner: SPXS Country: US Constellation: starlink
LEOCIRCULAR

About Starlink 31226

Description loading...

Live Position

Loading 3D Globe...

Upcoming Passes

Altitude History

Altitude vs Time

uPlot chart will show altitude changes over time

Two-Line Element Set

1 58858U 24019F 26015.48352374 .00001730 00000-0 72380-4 0 9995
2 58858 43.0021 189.5361 0001697 270.9413 89.1244 15.27586473110949
Epoch: Jan 15, 2026 • Age: 15 hours

Current Status

Altitude 487.0 km
Velocity 7.63 km/s
Sub-Earth Point 41.59°N, 146.67°E
Launch Date Jan 29, 2024
Age 1.9 years
Type internet

Technical Details

Classification Payload
Mass 730.00 kg
Dry Mass 700.00 kg
Total Mass 730.00 kg
Length 0.30 m
Diameter 4.10 m
Span 29.00 m
Shape Box + pan
Manufacturer SPXS
Bus Type Starlink V2M
Phase Status In Orbit
Owner/State SPXS/US

Large Constellations

Loading constellations...